Location: Aranbee
(34.0885°N, 118.2342°W)
Time: 22:55:11
(UTC+00:00)

A-11 Canister half - Pass Details

Date: 04 August 2021
Orbit: 1515 x 1685 km, 47.2° (Epoch: 22 September)

Event Time Altitude Azimuth Distance (km) Brightness Sun altitude
Rises 08:16:01 0° 298° (WNW) 4,933 11.9 -38.6°
Reaches altitude 10° 08:19:43 10° 288° (WNW) 3,948 11.2 -38.5°
Enters shadow 08:23:18 21° 271° (W) 3,167 10.5 -38.4°
